Dewpoint
62 63 63 60 59 61 60 57 53 45 41 37 35 35 37 40 43 56 56 58 56 55 54 54 54 53 53 51 50 51 50 51 51 50 50 50 50 50 50 50 50 50 50
63 63 63 64 62 61 60 56 52 45 40 37 35 34 36 40 43 55 54 54 54 53 51 52 51 51 52 49 49 49 49 49 49 48 49 48 48 48 48 48 48 49 49
61 62 62 63 63 63 61 59 53 46 41 37 36 33 37 40 42 46 53 51 51 51 50 50 50 49 50 49 46 46 47 47 47 46 46 47 47 47 46 47 47 47 47
59 59 59 62 63 63 63 60 54 46 42 38 36 34 37 39 41 42 48 49 47 47 47 50 49 47 47 44 42 42 44 44 43 42 42 43 44 45 45 46 46 46 46
60 59 59 61 62 62 63 61 56 46 42 40 37 34 35 38 40 40 41 44 45 45 45 46 46 45 42 41 41 41 43 42 39 40 40 41 41 43 44 45 45 45 46
61 60 59 59 62 61 62 61 55 48 44 42 37 34 33 37 38 38 38 39 40 44 42 42 42 40 41 40 40 39 38 37 37 38 39 40 41 42 43 44 45 45 45
62 62 61 60 62 61 61 61 55 49 46 42 35 32 33 32 34 38 36 36 37 38 40 40 40 37 39 40 36 33 33 36 36 37 39 40 42 43 44 44 44 44 44
64 63 62 61 60 61 61 60 54 49 45 41 33 33 32 32 30 33 36 35 34 36 35 36 36 35 33 34 30 35 35 36 37 38 40 41 41 42 43 43 43 44 44
64 64 63 63 62 60 60 60 55 50 45 41 38 37 37 35 30 31 33 35 33 33 33 29 29 28 30 31 38 33 33 37 38 37 37 39 40 41 42 42 43 43 43
63 63 63 63 63 62 61 60 57 52 46 41 39 40 38 36 31 29 32 34 32 31 31 30 27 27 26 32 32 35 36 33 33 34 36 38 39 40 41 42 42 42 42
63 62 62 62 63 63 62 61 59 54 48 45 42 41 41 35 34 33 29 30 32 31 29 29 28 27 25 28 31 37 35 31 31 33 35 36 38 39 41 41 42 42 42
60 62 62 61 62 63 62 61 60 57 51 49 44 44 41 39 34 32 32 29 29 30 29 29 28 27 26 26 28 33 32 30 31 32 33 35 37 38 39 39 39 39 40
58 60 61 61 61 62 62 61 60 58 51 50 48 45 43 43 38 34 34 31 29 28 27 28 28 27 26 26 32 33 31 29 30 31 34 35 36 35 36 36 36 37 37
55 56 59 59 60 60 60 60 59 58 55 51 50 49 47 43 40 38 36 32 30 29 31 33 34 31 29 27 30 29 31 30 29 29 31 33 33 33 34 34 34 35 36
53 54 54 57 59 59 59 59 58 58 56 53 52 50 45 42 41 39 40 39 38 33 29 30 31 32 32 31 33 30 28 27 28 27 29 31 32 32 32 33 33 33 34
49 52 53 54 55 57 57 57 56 55 54 52 50 48 43 39 39 38 37 38 39 37 33 32 32 33 35 34 34 34 32 33 33 33 32 31 30 30 31 33 33 33 33
50 50 51 51 52 52 52 52 51 51 49 46 45 43 40 38 36 35 36 36 36 37 35 32 32 33 33 33 34 34 33 33 30 31 29 29 30 31 31 31 32 31 32
49 49 49 49 49 49 49 48 46 45 44 42 40 39 38 37 37 36 36 35 36 37 35 33 32 32 32 33 33 33 32 29 28 28 29 30 30 29 29 28 28 29 30
45 44 43 43 43 43 44 42 41 41 40 39 39 38 37 36 35 34 34 34 34 34 34 33 32 32 32 32 32 32 30 30 29 29 28 24 24 25 26 27 29 30 30
35 35 35 35 35 35 36 37 37 37 37 37 36 36 36 35 35 34 33 32 32 32 32 31 31 31 31 32 31 28 27 26 26 24 24 24 24 24 24 25 25 26 26
35 35 35 35 35 36 36 35 35 35 35 34 34 35 35 35 35 34 33 32 32 31 31 31 30 30 28 27 26 26 25 24 24 24 23 23 22 23 23 25 25 23 24
38 38 37 37 37 37 37 36 34 33 33 33 32 32 34 35 36 36 35 35 33 31 29 30 29 27 26 22 22 24 24 22 20 24 22 22 22 22 23 23 24 25 25
36 36 37 37 37 37 37 36 34 32 32 31 31 32 32 33 32 31 34 34 33 32 31 30 28 25 22 23 24 23 23 23 23 24 23 22 22 21 23 22 23 24 25
33 33 33 34 35 36 36 35 32 30 30 30 30 30 28 28 29 29 26 26 26 25 26 26 26 25 25 25 25 24 24 23 23 23 22 20 21 21 22 22 24 24 25
31 31 31 31 32 34 34 32 30 30 29 29 28 27 26 26 25 26 25 26 25 24 24 26 24 23 23 24 25 25 23 22 20 20 22 21 21 21 22 22 22 24 24
30 31 31 31 30 30 30 29 29 28 26 24 24 22 21 24 24 25 26 24 23 21 20 19 19 20 20 18 18 19 20 17 18 20 21 22 22 22 21 23 22 22 23
Wind_Speed
15 15 11 14 15 15 13 15 11 10 7 7 4 3 4 5 3 13 12 14 11 10 9 9 8 9 10 9 10 10 10 10 10 10 10 10 10 10 11 11 11 12 12
15 15 14 13 14 12 12 13 13 9 11 9 7 6 6 4 3 15 13 11 11 11 10 10 9 9 9 9 8 8 8 8 8 8 9 8 9 9 9 10 10 11 11
14 16 15 14 15 12 15 12 13 12 11 11 10 9 8 8 5 10 15 13 10 10 10 11 10 9 9 8 7 7 6 7 6 6 7 7 7 7 8 9 9 9 10
15 13 13 16 15 14 10 9 11 10 10 11 9 11 10 8 10 9 14 15 14 10 8 11 11 10 9 7 6 6 7 5 5 4 4 4 4 5 6 7 7 8 9
17 17 13 13 17 15 14 14 11 12 12 12 13 11 9 9 8 9 11 15 17 16 12 10 10 10 9 8 7 7 7 6 4 3 1 1 2 2 4 5 6 8 8
20 18 18 14 19 16 15 15 13 13 13 15 12 9 9 7 10 10 12 11 12 17 16 14 12 11 11 10 8 6 6 6 5 4 3 0 2 2 3 4 6 8 9
18 22 15 18 18 20 20 19 15 15 16 13 9 4 5 9 9 11 12 13 13 14 16 16 14 12 12 12 9 8 7 7 7 6 3 2 2 3 5 7 8 8 10
12 16 19 16 16 17 18 20 20 15 15 17 11 8 6 6 14 14 13 14 17 17 15 17 16 16 15 13 11 10 8 8 7 6 4 3 3 4 6 7 9 10 11
17 17 14 17 18 13 17 20 20 22 20 18 17 9 6 11 6 10 19 16 17 16 17 16 16 14 14 13 13 10 9 9 7 6 5 4 4 6 8 10 11 12 13
19 20 19 13 17 19 17 18 17 22 17 22 10 19 4 6 7 6 8 15 15 16 18 16 15 13 12 12 12 13 11 8 6 5 4 4 6 8 10 11 12 13 14
19 18 17 18 14 16 16 14 15 20 23 20 22 12 12 8 6 4 8 11 13 12 15 17 16 15 14 11 12 14 14 9 7 5 5 5 7 9 12 12 14 15 15
14 17 17 15 15 12 15 13 16 16 20 18 17 16 16 16 15 10 4 5 13 9 11 14 15 14 13 12 10 13 11 9 7 5 6 7 9 10 11 12 14 15 16
6 8 11 11 12 13 13 13 15 15 16 20 18 20 14 13 6 13 7 4 5 3 5 4 8 11 11 11 11 12 9 7 7 7 8 9 11 12 12 13 14 16 17
6 4 6 10 12 13 13 11 12 13 14 18 19 14 13 15 9 9 13 13 5 4 2 6 8 5 8 7 8 9 2 9 10 9 10 11 12 14 14 14 14 16 18
5 4 5 6 8 12 13 12 12 14 13 16 16 14 9 8 8 6 7 7 10 8 5 5 5 7 5 7 9 3 4 8 11 13 13 14 14 14 15 15 17 17 18
2 2 3 6 6 5 6 5 6 4 9 7 8 12 8 7 7 7 9 8 9 6 6 1 2 2 8 7 6 4 2 9 12 15 17 18 16 16 16 18 19 20 20
8 6 5 4 3 3 3 2 2 2 2 4 5 9 8 9 9 8 8 8 7 7 9 4 4 7 8 9 5 5 7 12 13 16 17 17 17 18 18 19 20 21 21
11 9 9 5 5 3 5 6 5 6 8 6 5 7 8 8 9 10 9 10 11 9 4 8 3 9 8 4 6 8 11 11 9 13 16 15 16 18 19 19 20 20 21
13 13 15 14 12 10 6 6 9 6 8 7 7 8 8 9 9 10 8 8 8 6 9 4 5 2 1 3 6 9 11 12 11 14 14 13 15 19 21 20 19 19 20
16 15 15 14 13 11 9 9 13 8 11 8 7 8 9 9 10 11 9 8 7 9 10 8 5 4 4 6 9 9 10 8 9 7 9 12 18 17 19 17 18 19 20
14 12 13 13 11 12 10 13 12 11 12 12 9 8 8 9 10 10 10 9 9 8 8 6 5 4 4 5 6 4 8 4 5 5 9 11 8 11 15 16 16 20 19
13 13 13 14 15 12 14 13 13 13 12 12 12 11 12 11 9 9 8 8 5 6 6 4 3 3 4 2 3 0 1 5 8 2 7 17 10 16 15 14 18 19 20
13 16 16 17 16 14 15 15 16 13 14 12 10 8 7 7 6 6 4 2 1 2 1 3 2 2 3 1 2 3 5 7 11 13 12 20 9 17 13 13 19 21 21
13 13 15 17 16 13 15 16 17 13 13 11 9 7 7 4 3 2 1 1 1 2 3 2 1 2 3 5 3 3 5 7 8 9 9 14 5 17 14 14 18 21 20
14 14 13 15 14 12 14 15 13 10 10 8 5 5 3 3 1 1 2 4 2 4 1 2 4 8 10 10 9 5 9 10 11 6 8 11 7 9 13 16 12 12 14
12 11 13 10 11 10 10 10 9 7 6 4 4 3 5 5 3 2 5 6 2 3 6 7 8 6 9 9 10 7 5 10 10 8 2 9 6 8 10 5 5 13 14
Wind_Direction
184 181 192 183 194 181 206 190 200 196 185 214 216 218 184 200 219 131 124 132 137 146 147 147 145 138 129 120 117 113 104 100 89 81 76 74 68 62 55 51 50 48 48
185 187 202 205 202 188 205 192 193 197 195 194 200 218 204 204 205 138 135 134 144 150 158 160 157 153 145 137 124 120 114 107 97 84 79 69 66 57 50 47 45 43 42
190 188 199 202 200 194 204 215 194 197 195 183 200 200 197 200 200 148 152 150 148 153 165 171 166 167 164 156 143 137 127 111 97 85 78 70 61 52 41 39 35 30 28
219 215 202 193 192 197 201 226 198 199 197 190 198 199 193 203 188 194 163 161 162 161 168 179 171 173 165 165 161 156 150 135 120 100 81 66 57 38 28 19 17 14 10
213 215 219 201 190 192 193 220 217 191 201 206 207 198 195 202 207 196 183 169 175 167 164 149 170 160 170 170 167 163 167 161 155 148 103 49 41 20 6 358 350 350 348
210 207 213 210 183 193 197 207 210 196 200 207 202 195 192 210 212 209 192 190 176 173 167 159 156 159 172 176 168 172 182 192 190 185 176 311 332 328 325 328 330 326 330
207 211 213 214 186 194 205 203 198 199 206 187 172 192 207 226 242 221 204 199 189 185 170 173 177 180 182 185 187 193 203 203 196 190 192 229 295 312 314 314 314 315 315
262 207 212 214 212 202 205 203 193 197 200 182 179 140 209 244 241 236 214 207 195 188 186 181 186 187 191 191 188 187 187 190 190 194 205 226 266 289 299 302 304 303 301
260 272 243 216 213 226 204 209 193 194 200 200 186 162 182 221 188 220 224 214 198 193 192 192 195 196 176 180 175 175 178 174 181 195 213 239 273 291 295 297 298 298 299
227 237 252 259 214 219 222 209 201 196 180 200 210 232 232 148 187 202 220 218 207 202 196 192 192 191 182 166 177 170 176 178 187 198 209 259 282 289 294 298 297 296 295
215 220 224 246 237 226 236 223 202 206 199 195 201 205 221 214 216 168 194 208 218 213 198 191 191 187 176 167 161 162 172 180 193 208 238 263 283 294 299 303 304 302 300
216 210 220 221 248 245 239 230 217 217 205 214 204 209 206 209 218 206 196 183 201 218 198 187 183 183 176 175 177 176 175 183 194 222 256 275 285 291 296 300 300 297 295
245 221 205 221 233 245 243 231 222 218 210 209 208 213 215 219 216 209 188 161 161 156 173 152 167 170 172 167 145 152 176 208 231 245 266 279 295 295 291 295 296 294 292
274 251 243 236 239 246 252 244 229 226 204 215 225 214 214 210 205 192 216 191 191 175 133 138 53 68 116 120 153 147 170 234 246 258 269 284 294 293 290 293 293 293 292
25 11 353 344 273 248 239 238 236 235 220 211 211 210 200 188 185 185 186 180 188 193 220 165 136 106 100 119 134 146 228 280 271 278 283 283 285 282 286 289 288 291 290
342 54 356 318 319 308 285 284 282 270 217 202 186 186 173 163 153 153 164 162 153 151 176 264 137 169 138 115 130 204 260 282 282 277 278 274 278 281 284 286 289 290 287
29 35 11 338 349 30 97 86 36 41 94 106 110 163 157 142 145 136 130 139 153 144 167 166 125 176 196 178 195 247 265 259 258 267 274 281 287 288 287 289 289 289 287
20 20 4 349 12 73 136 134 142 144 140 147 152 145 152 141 141 140 148 160 180 172 173 187 158 177 199 177 243 253 253 259 273 273 274 282 283 285 287 292 293 288 285
29 40 43 41 39 29 53 100 119 116 118 139 150 156 153 148 151 145 161 175 163 167 99 160 144 128 168 184 243 253 256 254 259 264 277 296 295 294 296 292 290 289 288
37 46 51 48 48 56 68 78 86 93 92 98 109 132 153 166 162 147 138 145 131 118 124 138 136 169 192 210 213 244 266 268 260 268 299 302 294 300 300 295 295 297 295
44 43 58 57 52 51 53 66 73 82 91 89 78 88 99 111 122 126 146 148 160 149 145 155 150 176 196 218 223 241 238 292 312 288 297 288 306 302 297 293 296 297 293
52 54 60 65 63 63 70 80 85 86 83 87 83 68 65 81 102 122 142 149 169 143 142 147 177 187 239 229 272 80 288 329 317 279 334 305 302 289 281 280 284 290 292
65 66 64 67 65 68 76 85 90 81 86 84 88 91 88 73 65 50 55 47 316 261 165 175 254 258 310 307 212 302 317 292 276 280 292 293 279 281 277 279 292 293 293
62 63 63 60 63 68 82 87 85 80 81 80 79 79 95 84 84 118 169 84 290 291 274 269 210 275 302 312 311 279 286 294 296 291 289 287 299 296 290 279 286 293 299
67 65 63 66 64 61 72 78 80 74 77 76 73 85 127 149 113 335 292 237 265 300 289 211 287 292 289 289 288 284 282 294 300 296 284 268 284 303 298 286 278 284 302
78 76 73 74 80 74 70 75 90 98 96 118 166 110 57 52 22 355 20 15 53 16 8 340 320 310 304 293 284 269 239 267 269 304 229 356 323 328 318 288 308 309 290